Location: Sungai Apap
(2.6167°N, 113.3833°E)
Time: 16:27:58
(UTC+00:00)

Cosmos 2084 Rocket - Pass Details

Date: 25 May 2024
Orbit: 512 x 633 km, 62.8° (Epoch: 12 June)

Event Time Altitude Azimuth Distance (km) Brightness Sun altitude
Exits shadow 20:29:22 67° 125° (SE) 669 3.7 -25.4°
Maximum altitude 20:29:29 67° 114° (ESE) 667 3.7 -25.4°
Drops below altitude 10° 20:33:51 10° 31° (NNE) 1,938 6.8 -24.4°
Sets 20:36:05 0° 29° (NNE) 2,820 7.8 -23.9°
